This is the latest recevied weather packets stored in our database for station/object 4S6DRJ-13. If no packets are shown the sender has not sent any weather packets the latest 10 day(s).
| Time | Temp. | Humidity | Pressure | Rain* | Wind** | Luminosity | Snow |
|---|---|---|---|---|---|---|---|
| 1787904405 | 30.56° C | 76% | 1008.7 hPa | 0 mm | 1.34 m/s, 127° | 452 W/m² | - |
| 1787904344 | 30.56° C | 76% | 1008.6 hPa | 0 mm | 1.79 m/s, 220° | 1132 W/m² | - |
| 1787904284 | 30.56° C | 75% | 1008.7 hPa | 0 mm | 2.68 m/s, 251° | 1134 W/m² | - |
| 1787904223 | 30.56° C | 75% | 1008.8 hPa | 0 mm | 1.34 m/s, 263° | 473 W/m² | - |
| 1787904161 | 30.56° C | 74% | 1008.6 hPa | 0 mm | 2.24 m/s, 194° | 322 W/m² | - |
| 1787904100 | 30.56° C | 75% | 1008.6 hPa | 0 mm | 1.79 m/s, 310° | 315 W/m² | - |
| 1787904039 | 30.56° C | 75% | 1008.6 hPa | 0 mm | 0.89 m/s, 283° | 366 W/m² | - |
| 1787903979 | 30.56° C | 75% | 1008.6 hPa | 0 mm | 1.34 m/s, 240° | 305 W/m² | - |
| 1787903917 | 30.56° C | 75% | 1008.5 hPa | 0 mm | 2.24 m/s, 243° | 374 W/m² | - |
| 1787903857 | 30.56° C | 76% | 1008.6 hPa | 0 mm | 0.89 m/s, 189° | 536 W/m² | - |
| 1787903795 | 30° C | 76% | 1008.8 hPa | 0 mm | 1.79 m/s, 268° | 742 W/m² | - |
| 1787903735 | 30° C | 76% | 1008.7 hPa | 0 mm | 1.34 m/s, 257° | 522 W/m² | - |
| 1787903673 | 30.56° C | 75% | 1008.5 hPa | 0 mm | 1.34 m/s, 227° | 1114 W/m² | - |
| 1787903613 | 30.56° C | 75% | 1008.7 hPa | 0 mm | 2.68 m/s, 295° | 404 W/m² | - |
| 1787903551 | 30° C | 76% | 1008.8 hPa | 0 mm | 2.68 m/s, 189° | 425 W/m² | - |
| 1787903491 | 30.56° C | 75% | 1008.9 hPa | 0 mm | 1.34 m/s, 268° | 870 W/m² | - |
| 1787903430 | 30.56° C | 74% | 1008.7 hPa | 0 mm | 1.79 m/s, 198° | 444 W/m² | - |
| 1787903369 | 30.56° C | 74% | 1008.8 hPa | 0 mm | 3.13 m/s, 10° | 413 W/m² | - |
| 1787903308 | 30.56° C | 74% | 1008.7 hPa | 0 mm | 1.79 m/s, 318° | 374 W/m² | - |
| 1787903247 | 30.56° C | 73% | 1008.8 hPa | 0 mm | 2.24 m/s, 317° | 416 W/m² | - |
| 1787903185 | 30.56° C | 75% | 1009 hPa | 0 mm | 2.68 m/s, 223° | 442 W/m² | - |
| 1787903124 | 31.11° C | 74% | 1008.9 hPa | 0 mm | 1.79 m/s, 292° | 482 W/m² | - |
| 1787903063 | 31.11° C | 73% | 1009 hPa | 0 mm | 3.13 m/s, 99° | 355 W/m² | - |
| 1787903003 | 31.11° C | 73% | 1009 hPa | 0 mm | 2.68 m/s, 236° | 390 W/m² | - |
| 1787902942 | 31.11° C | 73% | 1008.9 hPa | 0 mm | 2.24 m/s, 216° | 487 W/m² | - |
* Rain latest hour (hover to see other rain measurements)
** Current wind speed in m/s (hover to see current wind gust speed)